Weather Roundup
Issued by NWS Springfield, MO

Home | Current Version | Previous Version | Text Only | Print | Product List | Glossary On
Versions: 1 2 3 4 5 6 7 8 9 10 11 12 13 14 15 16 17 18 19 20 21 22 23 24 25 26 27 28 29 30 31 32 33 34 35 36 37 38 39 40 41 42 43 44 45 46 47 48 49 50
000
NZUS99 KSGF 290307
HRRSGF

HOURLY WEATHER
NATIONAL WEATHER SERVICE SPRINGFIELD MO
900 PM CST FRI NOV 28 2014

......SGF CWA......

CITY           SKY/WX    TMP DP  RH WIND       PRES   REMARKS
SPRINGFIELD    PTCLDY    50  36  58 S13       29.89F
JOPLIN         CLOUDY    56  40  55 S17       29.87F
WEST PLAINS    PTCLDY    44  32  62 S8        29.97S
ROLLA          PTCLDY    46  33  60 S18       29.87S
OSAGE BEACH    CLEAR     50  34  53 S10G16    29.87S
BRANSON        MOCLDY    45  36  70 S3        29.94F

......SURROUNDING SGF CWA......

CITY           SKY/WX    TMP DP  RH WIND       PRES   REMARKS
CHANUTE        CLOUDY    54  41  61 S13       29.83S
PARSONS        CLOUDY    53  41  63 S8        29.85F
COFFEYVILLE    MOCLDY    55  42  61 S15       29.85F
EMPORIA        CLOUDY    51  37  58 S13       29.78F
GROVE OK       CLOUDY    57  43  58 S9        29.92S
ROGERS AR      MOCLDY    52  40  63 S14       29.94S
SILOAM SPRINGS MOCLDY    54  37  54 S15G23    29.95S
HARRISON AR    PTCLDY    51  39  63 S8        29.95R
NEAR YELLVILLE CLEAR     52  34  50 S5        29.96S

......KANSAS AND MISSOURI......

CITY           SKY/WX    TMP DP  RH WIND       PRES   REMARKS
KANSAS CTY INT CLOUDY    53  36  52 S18G26    29.75F
DOWNTOWN KC    CLOUDY    56  36  47 S16       29.76F
COLUMBIA       MOCLDY    49  35  58 S10       29.84S
SEDALIA        PTCLDY    54  36  50 SW15      29.81F
ST JOSEPH      MOCLDY    51  36  56 S14       29.71F
ST LOUIS       PTCLDY    45  33  63 S10       29.91F
SPIRIT OF STL  CLEAR     45  33  63 S5        29.89F
KIRKSVILLE     MOCLDY    43  34  70 S9        29.78F
WICHITA        MOCLDY    50  38  63 S13       29.78F
TOPEKA         CLOUDY    55  36  48 S7        29.75F
OLATHE         CLOUDY    52  36  54 S13       29.77F

......TENNESSEE......

CITY           SKY/WX    TMP DP  RH WIND       PRES   REMARKS
MEMPHIS        CLEAR     48  26  42 S12       30.11F
NASHVILLE      PTCLDY    42  21  43 S12       30.16S

......ARKANSAS.......

CITY           SKY/WX    TMP DP  RH WIND       PRES   REMARKS
FAYETTEVILLE   MOCLDY    52  41  66 S12       29.95S
FT SMITH       CLEAR     47  38  71 N5        29.99S
LITTLE ROCK    PTCLDY    49  35  58 S10       30.07F

......OKLAHOMA.......

CITY           SKY/WX    TMP DP  RH WIND       PRES   REMARKS
TULSA          PTCLDY    58  47  66 S14       29.88F
PONCA CITY     CLEAR     58  41  53 S10G17    29.82F
MCALESTER      CLEAR     60  48  64 S10G21    29.94F
OKLAHOMA CITY  PTCLDY    56  44  64 S14       29.86F

......IOWA............

CITY           SKY/WX    TMP DP  RH WIND       PRES   REMARKS
DES MOINES     PTCLDY    38  30  73 E6        29.70F WCI  33
QUAD CITIES    PTCLDY    32  28  85 E7        29.84R WCI  26

......ILLINOIS........

CITY           SKY/WX    TMP DP  RH WIND       PRES   REMARKS
QUINCY         CLEAR     43  32  65 S9        29.81F
CHICAGO        CLOUDY    34  28  79 S12       29.93S WCI  25



USA.gov is the U.S. government's official web portal to all federal, state and local government web resources and services.